Location: Newark
(36.3167°N, 3.7500°E)
Time: 04:51:03
(UTC+00:00)

N. Korean satellite - Visible Passes

Search period start: 18 November 2019 00:00
Search period end: 28 November 2019 00:00
Orbit: 456 x 506 km, 97.2° (Epoch: 17 November)

Date Brightness Start Highest point End Pass type
(mag) Time Alt. Az. Time Alt. Az. Time Alt. Az.
18 Nov 8.8 05:03:45 10° NE 05:07:03 30° E 05:10:17 10° SSE visible
18 Nov 7.5 17:09:16 10° S 17:12:47 54° W 17:16:24 10° NNW visible
19 Nov 10.0 04:39:29 10° ENE 04:41:31 14° E 04:43:33 10° SE visible
20 Nov 6.6 05:46:01 10° N 05:49:40 66° WNW 05:53:16 10° SSW visible
20 Nov 10.0 17:53:30 10° SW 17:55:34 15° W 17:57:39 10° WNW visible
21 Nov 7.5 05:20:42 10° NNE 05:24:18 52° E 05:27:50 10° S visible
21 Nov 8.8 17:26:47 10° SSW 17:30:02 30° W 17:33:20 10° NNW visible
22 Nov 9.2 04:55:50 10° NE 04:58:49 23° E 05:01:46 10° SSE visible
22 Nov 7.0 17:00:59 10° S 17:04:35 71° WSW 17:08:17 10° NNW visible
23 Nov 10.2 04:32:12 10° ENE 04:33:16 11° E 04:34:19 10° ESE visible
24 Nov 6.5 05:37:48 10° N 05:41:29 86° WNW 05:45:04 10° SSW visible
24 Nov 9.7 17:44:42 10° SW 17:47:18 18° W 17:49:57 10° NW visible
25 Nov 8.1 05:12:36 10° NNE 05:16:04 40° E 05:19:27 10° S visible
25 Nov 8.2 17:18:21 10° S 17:21:48 39° W 17:25:18 10° NNW visible
26 Nov 9.6 04:47:57 10° NE 04:50:33 18° E 04:53:06 10° SE visible
26 Nov 6.6 16:52:43 10° SSE 16:56:22 88° E 17:00:06 10° N visible
27 Nov 6.8 05:55:05 10° N 05:58:36 47° WNW 06:02:01 10° SSW visible
27 Nov 10.2 18:03:29 10° WSW 18:04:35 11° W 18:05:42 10° WNW visible
